When you browse on this site, cookies collect data to enhance your experience and personalize the content and advertising you see.
Visit our Privacy Policy to learn more. By continuing to use the site, you agree to this use of cookies and data.
  • In Italy
  • List of Countries
  • For 7 days
  • Water Temperature
  • Satellite Maps
  • Weather Map
  • Weather Widgets
  • user-avatar
    Login

    Hourly Weather Robertsport

    Today, 12 December, Wednesday

    Time Temperature Precipitation Wind Pressure Humidity
    00:00 +26°C° 0.3 mm 2 mps 756 mmHg 92%
    01:00 +26°C° 0.3 mm 2 mps 756 mmHg 93%
    02:00 +26°C° 0.3 mm 2 mps 756 mmHg 94%
    03:00 +26°C° 0.2 mm 1 mps 756 mmHg 94%
    04:00 +25°C° 0.2 mm 1 mps 756 mmHg 95%
    05:00 +25°C° 0 mm 1 mps 755 mmHg 95%
    06:00 +25°C° 0.1 mm 0 mps 756 mmHg 89%
    07:00 +26°C° 0.1 mm 0 mps 756 mmHg 83%
    08:00 +28°C° 0.1 mm 0 mps 756 mmHg 77%
    09:00 +30°C° 0 mm 0 mps 756 mmHg 69%
    10:00 +33°C° 0 mm 1 mps 756 mmHg 60%
    11:00 +35°C° 0 mm 1 mps 756 mmHg 51%
    12:00 +35°C° 0.5 mm 2 mps 756 mmHg 55%
    13:00 +34°C° 0.5 mm 2 mps 755 mmHg 59%
    14:00 +33°C° 0.5 mm 3 mps 755 mmHg 64%
    15:00 +31°C° 0.7 mm 2 mps 755 mmHg 70%
    16:00 +30°C° 0.7 mm 2 mps 755 mmHg 75%
    17:00 +29°C° 0.7 mm 2 mps 755 mmHg 81%
    18:00 +28°C° 0 mm 2 mps 756 mmHg 84%
    19:00 +27°C° 0 mm 2 mps 756 mmHg 86%
    20:00 +27°C° 0 mm 2 mps 757 mmHg 89%
    21:00 +27°C° 0 mm 2 mps 757 mmHg 89%
    22:00 +26°C° 0 mm 2 mps 757 mmHg 90%
    23:00 +26°C° 0 mm 2 mps 757 mmHg 90%

    Tomorrow, 13 December, Thursday

    Time Temperature Precipitation Wind Pressure Humidity
    00:00 +26°C° 0.2 mm 2 mps 757 mmHg 91%
    01:00 +26°C° 0.2 mm 2 mps 756 mmHg 92%
    02:00 +26°C° 0.2 mm 1 mps 756 mmHg 92%
    03:00 +25°C° 0.3 mm 1 mps 756 mmHg 93%
    04:00 +25°C° 0.3 mm 1 mps 756 mmHg 94%
    05:00 +25°C° 0.3 mm 1 mps 756 mmHg 95%
    06:00 +26°C° 0.3 mm 1 mps 757 mmHg 90%
    07:00 +28°C° 0.3 mm 1 mps 757 mmHg 85%
    08:00 +27°C° 0.3 mm 0 mps 757 mmHg 81%
    09:00 +31°C° 0 mm 1 mps 757 mmHg 72%
    10:00 +33°C° 0 mm 1 mps 757 mmHg 63%
    11:00 +35°C° 0 mm 1 mps 757 mmHg 54%
    12:00 +34°C° 0.6 mm 1 mps 756 mmHg 58%
    13:00 +34°C° 0.6 mm 2 mps 756 mmHg 62%
    14:00 +32°C° 0.6 mm 2 mps 755 mmHg 66%
    15:00 +31°C° 0.7 mm 2 mps 755 mmHg 71%
    16:00 +30°C° 0.7 mm 2 mps 755 mmHg 76%
    17:00 +29°C° 0.7 mm 2 mps 756 mmHg 81%
    18:00 +28°C° 0.1 mm 2 mps 756 mmHg 84%
    19:00 +28°C° 0.1 mm 2 mps 757 mmHg 86%
    20:00 +27°C° 0.1 mm 2 mps 757 mmHg 89%
    21:00 +27°C° 0.4 mm 2 mps 757 mmHg 90%
    22:00 +26°C° 0.4 mm 2 mps 757 mmHg 90%
    23:00 +26°C° 0.4 mm 2 mps 757 mmHg 91%

    Day after tomorrow, 14 December, Friday

    Time Temperature Precipitation Wind Pressure Humidity
    00:00 +26°C° 1.7 mm 2 mps 757 mmHg 92%
    01:00 +26°C° 1.7 mm 2 mps 756 mmHg 93%
    02:00 +26°C° 1.7 mm 1 mps 756 mmHg 93%
    03:00 +26°C° 0.9 mm 1 mps 756 mmHg 93%
    04:00 +25°C° 0.9 mm 1 mps 756 mmHg 93%
    05:00 +23°C° 0.9 mm 0 mps 756 mmHg 93%
    06:00 +24°C° 0 mm 0 mps 757 mmHg 89%
    07:00 +28°C° 0 mm 1 mps 757 mmHg 85%
    08:00 +29°C° 0 mm 1 mps 758 mmHg 81%
    09:00 +29°C° 0 mm 0 mps 758 mmHg 72%
    10:00 +31°C° 0 mm 0 mps 757 mmHg 62%
    11:00 +34°C° 0 mm 0 mps 757 mmHg 53%
    12:00 +35°C° 0.2 mm 1 mps 757 mmHg 55%
    13:00 +34°C° 0.2 mm 1 mps 756 mmHg 57%
    14:00 +34°C° 0.2 mm 2 mps 755 mmHg 59%
    15:00 +32°C° 0.6 mm 2 mps 755 mmHg 68%
    16:00 +30°C° 0.6 mm 2 mps 755 mmHg 76%
    17:00 +29°C° 0.6 mm 2 mps 755 mmHg 84%
    18:00 +28°C° 0.4 mm 2 mps 756 mmHg 86%
    19:00 +27°C° 0.4 mm 2 mps 757 mmHg 89%
    20:00 +27°C° 0.4 mm 2 mps 757 mmHg 91%
    21:00 +27°C° 0 mm 2 mps 757 mmHg 92%
    22:00 +27°C° 0 mm 2 mps 758 mmHg 92%
    23:00 +26°C° 0 mm 1 mps 758 mmHg 93%

    15 December, Saturday

    Time Temperature Precipitation Wind Pressure Humidity
    00:00 +26°C° 0.1 mm 1 mps 757 mmHg 93%
    01:00 +26°C° 0.1 mm 1 mps 757 mmHg 93%
    02:00 +26°C° 0.1 mm 1 mps 756 mmHg 94%
    03:00 +26°C° 0 mm 1 mps 756 mmHg 94%
    04:00 +26°C° 0 mm 1 mps 757 mmHg 95%
    05:00 +23°C° 0 mm 0 mps 757 mmHg 95%
    06:00 +27°C° 0 mm 1 mps 757 mmHg 91%
    07:00 +28°C° 0 mm 1 mps 758 mmHg 88%
    08:00 +29°C° 0 mm 1 mps 759 mmHg 84%
    09:00 +30°C° 0.1 mm 1 mps 758 mmHg 75%
    10:00 +32°C° 0.1 mm 1 mps 758 mmHg 67%
    11:00 +34°C° 0.1 mm 1 mps 758 mmHg 58%
    12:00 +35°C° 0.1 mm 2 mps 757 mmHg 54%
    13:00 +36°C° 0.1 mm 2 mps 756 mmHg 51%
    14:00 +36°C° 0.1 mm 2 mps 755 mmHg 47%
    15:00 +35°C° 0.1 mm 3 mps 755 mmHg 55%
    16:00 +33°C° 0.1 mm 3 mps 755 mmHg 64%
    17:00 +30°C° 0.1 mm 3 mps 755 mmHg 73%
    18:00 +29°C° 0 mm 3 mps 756 mmHg 79%
    19:00 +28°C° 0 mm 3 mps 757 mmHg 85%
    20:00 +27°C° 0 mm 3 mps 757 mmHg 91%
    21:00 +27°C° 0 mm 2 mps 757 mmHg 91%
    22:00 +27°C° 0 mm 2 mps 757 mmHg 92%
    23:00 +27°C° 0 mm 2 mps 757 mmHg 92%

    16 December, Sunday

    Time Temperature Precipitation Wind Pressure Humidity
    00:00 +26°C° 0 mm 2 mps 757 mmHg 93%
    01:00 +26°C° 0 mm 2 mps 756 mmHg 93%
    02:00 +26°C° 0 mm 1 mps 756 mmHg 94%
    03:00 +26°C° 0.1 mm 1 mps 756 mmHg 93%
    04:00 +27°C° 0.1 mm 1 mps 756 mmHg 92%
    05:00 +27°C° 0.1 mm 1 mps 757 mmHg 91%
    06:00 +28°C° 0.1 mm 1 mps 757 mmHg 85%
    07:00 +29°C° 0.1 mm 1 mps 758 mmHg 80%
    08:00 +30°C° 0.1 mm 1 mps 758 mmHg 74%
    09:00 +32°C° 0 mm 1 mps 758 mmHg 64%
    10:00 +34°C° 0 mm 1 mps 757 mmHg 55%
    11:00 +36°C° 0 mm 1 mps 757 mmHg 45%
    12:00 +38°C° 0 mm 2 mps 756 mmHg 43%
    13:00 +38°C° 0 mm 2 mps 755 mmHg 41%
    14:00 +38°C° 0 mm 3 mps 755 mmHg 39%
    15:00 +36°C° 0 mm 3 mps 755 mmHg 49%
    16:00 +34°C° 0 mm 3 mps 755 mmHg 58%
    17:00 +32°C° 0 mm 4 mps 755 mmHg 68%
    18:00 +30°C° 0 mm 3 mps 756 mmHg 75%
    19:00 +29°C° 0 mm 3 mps 756 mmHg 82%
    20:00 +28°C° 0 mm 3 mps 757 mmHg 89%
    21:00 +27°C° 0 mm 3 mps 757 mmHg 90%
    22:00 +27°C° 0 mm 2 mps 757 mmHg 91%
    23:00 +27°C° 0 mm 2 mps 757 mmHg 92%

    17 December, Monday

    Time Temperature Precipitation Wind Pressure Humidity
    00:00 +27°C° 0 mm 2 mps 757 mmHg 92%
    01:00 +27°C° 0 mm 2 mps 756 mmHg 92%
    02:00 +27°C° 0 mm 2 mps 756 mmHg 92%
    03:00 +27°C° 0.1 mm 1 mps 756 mmHg 92%
    04:00 +27°C° 0.1 mm 1 mps 756 mmHg 91%
    05:00 +27°C° 0.1 mm 1 mps 756 mmHg 91%
    06:00 +28°C° 0.1 mm 1 mps 757 mmHg 85%
    07:00 +29°C° 0.1 mm 1 mps 757 mmHg 79%
    08:00 +30°C° 0.1 mm 1 mps 758 mmHg 74%
    09:00 +32°C° 0.1 mm 1 mps 757 mmHg 67%
    10:00 +33°C° 0.1 mm 1 mps 757 mmHg 60%
    11:00 +35°C° 0.1 mm 1 mps 757 mmHg 53%
    12:00 +35°C° 0 mm 1 mps 756 mmHg 51%
    13:00 +36°C° 0 mm 2 mps 755 mmHg 49%
    14:00 +36°C° 0 mm 2 mps 754 mmHg 47%
    15:00 +35°C° 0 mm 3 mps 755 mmHg 55%
    16:00 +33°C° 0 mm 3 mps 755 mmHg 62%
    17:00 +31°C° 0 mm 3 mps 755 mmHg 70%
    18:00 +30°C° 0 mm 3 mps 755 mmHg 75%
    19:00 +29°C° 0 mm 3 mps 756 mmHg 80%
    20:00 +28°C° 0 mm 2 mps 757 mmHg 86%
    21:00 +27°C° 0 mm 2 mps 757 mmHg 87%
    22:00 +27°C° 0 mm 2 mps 757 mmHg 87%
    23:00 +27°C° 0 mm 2 mps 757 mmHg 88%
    Show more